User: anonymous   Login
Location: Brno
(49.2000°N, 16.6330°E)
Time: 03:32:30
(UTC+02:00)
Language:

CARTOSAT-1 - Orbit

View from above orbital plane
View from above orbital plane
View from above satellite
View from above satellite

Ground track
Ground track

The orbit data is extracted from the following two-line orbital elements,

1 28649U 05017A   16273.79155369  .00000260  00000-0  38142-4 0  9996
2 28649  97.8910 345.8630 0002414 138.9341 221.2071 14.83436126617371
Epoch (UTC): 29 September 2016 18:59:50
Eccentricity: 0.0002414
inclination: 97.8910°
perigee height: 617 km
apogee height: 620 km
right ascension of ascending node: 345.8630°
argument of perigee: 138.9341°
revolutions per day: 14.83436126
mean anomaly at epoch: 221.2071°
orbit number at epoch: 61737

The dashed part of the orbit path shows where the satellite is in the earth's shadow,  

DLR